G6FJI-13 Weather Reports


time (UTC)temp
C
wind
direction
speed
KPH
gust
KPH
rain 1hr
cm
rain 24hr
cm
rain mn
cm
humidity
%
barometer
mb
20260508024308 7 0.0 0.0 0.00 0.00 0.00 90 1019.1
20260508023236 7 0.0 0.0 0.00 0.00 0.00 90 1018.8
20260508022309 7 0.0 0.0 0.00 0.00 0.00 90 1019.0
20260508021237 7 0.0 0.0 0.00 0.00 0.00 90 1018.8
20260508020310 7 0.0 0.0 0.00 0.00 0.00 89 1019.1
20260508015318 7 0.0 0.0 0.00 0.00 0.00 89 1018.9
20260508014351 7 0.0 0.0 0.00 0.00 0.00 89 1018.9
20260508013239 7 0.0 0.0 0.00 0.00 0.00 88 1019.0
20260508012311 7 0.0 0.0 0.00 0.00 0.00 88 1019.1
20260508011241 7 0.0 0.0 0.00 0.00 0.00 87 1019.0
20260508010412 7 0.0 0.0 0.00 0.00 0.00 87 1018.8
20260508005301 8 0.0 0.0 0.00 0.00 0.00 86 1018.9
20260508004212 8 0.0 0.0 0.00 0.00 0.00 86 1018.9
20260508003141 8 0.0 0.0 0.00 0.00 0.00 85 1018.9
20260508002214 8 0.0 0.0 0.00 0.00 0.00 85 1019.1
20260508001143 8 0.0 0.0 0.00 0.00 0.00 85 1019.1
20260508000215 8 0.0 0.0 0.00 0.00 0.00 84 1019.1
20260507235203 9 0.0 0.0 0.00 0.00 0.00 84 1019.0
20260507234216 9 0.0 0.0 0.00 0.00 0.00 84 1019.3
20260507233144 10 0.0 0.0 0.00 0.00 0.00 82 1019.3
20260507232101 10 0.0 1.6 0.00 0.00 0.00 81 1019.2
20260507231104 10 0.0 1.6 0.00 0.00 0.00 81 1019.3
20260507230002 10 0.0 1.6 0.00 0.00 0.00 81 1019.3
20260507224946 10 0.0 0.0 0.00 0.00 0.00 80 1019.3
20260507224038 10 0.0 0.0 0.00 0.00 0.00 79 1019.3
20260507222947 11 0.0 1.6 0.00 0.00 0.00 79 1019.3
20260507222019 11 352 0.0 1.6 0.00 0.00 0.00 78 1019.2
20260507220947 11 327 1.6 1.6 0.00 0.00 0.00 77 1019.2
20260507215905 11 312 0.0 1.6 0.00 0.00 0.00 76 1019.3
20260507214820 11 330 0.0 3.2 0.00 0.00 0.00 75 1019.3
20260507213905 11 0.0 1.6 0.00 0.00 0.00 75 1019.2
20260507212821 11 0.0 1.6 0.00 0.00 0.00 74 1019.3
20260507211906 11 0.0 1.6 0.00 0.00 0.00 73 1019.2
20260507210822 12 320 0.0 3.2 0.00 0.00 0.00 72 1019.2
20260507205750 12 248 0.0 4.8 0.00 0.00 0.00 71 1019.0
20260507204722 12 289 1.6 4.8 0.00 0.00 0.00 71 1018.9
20260507203807 12 298 1.6 3.2 0.00 0.00 0.00 71 1018.9
20260507202723 12 0.0 0.0 0.00 0.00 0.00 71 1018.9
20260507201807 12 151 0.0 1.6 0.00 0.00 0.00 70 1018.8
20260507200725 12 0.0 1.6 0.00 0.00 0.00 69 1018.6
20260507195809 12 295 1.6 3.2 0.00 0.00 0.00 69 1018.4
20260507194725 13 304 1.6 3.2 0.00 0.00 0.00 68 1018.2
20260507193810 13 0.0 1.6 0.00 0.00 0.00 68 1018.0
20260507192726 13 0.0 1.6 0.00 0.00 0.00 66 1018.1
20260507191811 13 0.0 0.0 0.00 0.00 0.00 65 1017.8
20260507190727 13 0.0 1.6 0.00 0.00 0.00 64 1017.9
20260507185831 13 0.0 0.0 0.00 0.00 0.00 63 1017.9
20260507184748 13 0.0 0.0 0.00 0.00 0.00 60 1017.8
20260507183812 14 0.0 1.6 0.00 0.00 0.00 58 1017.8
20260507182728 14 0.0 0.0 0.00 0.00 0.00 58 1017.9
20260507181813 14 0.0 1.6 0.00 0.00 0.00 57 1017.8
20260507180729 14 0.0 1.6 0.00 0.00 0.00 56 1018.0
20260507175814 14 201 1.6 1.6 0.00 0.00 0.00 57 1017.6
20260507174730 15 0.0 1.6 0.00 0.00 0.00 57 1017.6
20260507173814 15 0.0 1.6 0.00 0.00 0.00 57 1017.7
20260507172731 15 164 1.6 3.2 0.00 0.00 0.00 57 1017.6
20260507171815 15 117 1.6 3.2 0.00 0.00 0.00 56 1017.5
20260507170731 15 329 0.0 3.2 0.00 0.00 0.00 52 1017.5
20260507165700 15 0.0 1.6 0.00 0.00 0.00 44 1017.5
20260507164632 16 281 1.6 3.2 0.00 0.00 0.00 44 1017.6
20260507163717 16 0.0 1.6 0.00 0.00 0.00 47 1017.4
20260507162635 16 301 1.6 1.6 0.00 0.00 0.00 46 1017.6
20260507161603 16 299 1.6 1.6 0.00 0.00 0.00 46 1017.6
20260507160618 16 285 1.6 1.6 0.00 0.00 0.00 44 1017.7
20260507155530 16 307 4.8 4.8 0.00 0.00 0.00 47 1017.9
20260507154615 15 0.0 1.6 0.00 0.00 0.00 46 1017.8
20260507153611 15 347 1.6 3.2 0.00 0.00 0.00 46 1018.0
20260507152616 15 323 1.6 3.2 0.00 0.00 0.00 45 1017.7
20260507151534 16 327 1.6 4.8 0.00 0.00 0.00 45 1017.8
20260507150516 16 0.0 3.2 0.00 0.00 0.00 47 1017.8
20260507145452 16 318 1.6 3.2 0.00 0.00 0.00 44 1017.6
20260507144518 16 332 1.6 4.8 0.00 0.00 0.00 43 1017.7
20260507143434 17 145 0.0 1.6 0.00 0.00 0.00 43 1017.9
20260507142600 16 21 0.0 1.6 0.00 0.00 0.00 48 1017.8
20260507141435 16 0.0 1.6 0.00 0.00 0.00 47 1017.8
20260507140519 16 20 1.6 1.6 0.00 0.00 0.00 44 1018.3
20260507135436 16 351 0.0 4.8 0.00 0.00 0.00 45 1018.1
20260507134404 16 12 1.6 3.2 0.00 0.00 0.00 46 1018.2
20260507133321 15 137 1.6 3.2 0.00 0.00 0.00 49 1018.3
20260507132257 15 0.0 0.0 0.00 0.00 0.00 48 1018.2
20260507131241 15 124 1.6 3.2 0.00 0.00 0.00 51 1018.4
20260507130306 15 141 1.6 3.2 0.00 0.00 0.00 48 1018.6
20260507125243 15 0.0 1.6 0.00 0.00 0.00 49 1018.6
20260507124307 15 0.0 3.2 0.00 0.00 0.00 45 1018.7
20260507123223 15 331 0.0 3.2 0.00 0.00 0.00 48 1018.7
20260507122308 16 0.0 3.2 0.00 0.00 0.00 49 1018.7
20260507121224 16 129 0.0 1.6 0.00 0.00 0.00 48 1018.8
20260507120308 16 333 0.0 3.2 0.00 0.00 0.00 49 1018.6
20260507115225 16 50 1.6 3.2 0.00 0.00 0.00 51 1018.9
20260507114309 16 99 1.6 1.6 0.00 0.00 0.00 54 1018.8
20260507113225 15 100 3.2 8.0 0.00 0.00 0.00 53 1018.7
20260507112311 15 307 4.8 4.8 0.00 0.00 0.00 53 1018.8
20260507111226 15 0.0 4.8 0.00 0.00 0.00 58 1018.8
20260507110312 15 0.0 1.6 0.00 0.00 0.00 58 1019.1
20260507105223 15 307 3.2 4.8 0.00 0.00 0.00 57 1019.2
20260507104140 14 31 3.2 3.2 0.00 0.00 0.00 59 1019.2
20260507103208 14 0.0 3.2 0.00 0.00 0.00 65 1019.3
20260507102124 15 19 0.0 1.6 0.00 0.00 0.00 62 1019.1
20260507101210 15 323 4.8 4.8 0.00 0.00 0.00 65 1019.2
20260507100145 13 303 0.0 1.6 0.00 0.00 0.00 71 1019.3
20260507095210 12 0.0 8.0 0.00 0.00 0.00 70 1019.2
20260507094126 12 0.0 1.6 0.00 0.00 0.00 75 1019.3
20260507093211 12 326 3.2 4.8 0.00 0.00 0.00 75 1019.4
20260507092127 11 319 4.8 4.8 0.00 0.00 0.00 81 1019.6
20260507091211 10 333 3.2 3.2 0.00 0.00 0.00 88 1019.5
20260507090129 10 306 1.6 1.6 0.00 0.00 0.00 95 1019.6
20260507085212 8 0.0 3.2 0.00 0.00 0.00 97 1019.8
20260507084129 7 0.0 1.6 0.00 0.00 0.00 98 1019.7
20260507083214 7 319 1.6 3.2 0.00 0.00 0.00 98 1019.8
20260507082129 7 0.0 0.0 0.00 0.00 0.00 99 1019.8
20260507081214 6 0.0 1.6 0.00 0.00 0.00 99 1019.6
20260507080154 6 223 1.6 1.6 0.00 0.00 0.00 98 1019.6
20260507075216 6 0.0 0.0 0.00 0.00 0.00 99 1019.4
20260507074131 6 0.0 0.0 0.00 0.00 0.00 99 1019.5
20260507073215 6 0.0 1.6 0.00 0.00 0.00 99 1019.8
20260507072133 5 0.0 1.6 0.00 0.00 0.00 99 1019.4
20260507071236 5 0.0 0.0 0.00 0.00 0.00 99 1019.5
20260507070132 5 0.0 1.6 0.00 0.00 0.00 98 1019.4
20260507065237 5 0.0 0.0 0.00 0.00 0.00 98 1019.5
20260507064134 5 327 1.6 3.2 0.00 0.00 0.00 98 1019.3
20260507063218 5 0.0 0.0 0.00 0.00 0.00 98 1019.3
20260507062134 5 0.0 0.0 0.00 0.00 0.00 98 1019.5
20260507061219 4 336 1.6 1.6 0.00 0.00 0.00 98 1019.3
20260507060135 4 327 0.0 1.6 0.00 0.00 0.00 98 1019.2
20260507055239 4 316 0.0 3.2 0.00 0.00 0.00 98 1019.3
20260507054136 4 0.0 1.6 0.00 0.00 0.00 98 1019.1
20260507053220 4 303 0.0 1.6 0.00 0.00 0.00 98 1019.1
20260507052137 5 0.0 1.6 0.00 0.00 0.00 98 1019.0
20260507051222 5 0.0 0.0 0.00 0.00 0.00 98 1018.9
20260507050137 5 0.0 1.6 0.00 0.00 0.00 98 1018.9
20260507045222 5 158 1.6 1.6 0.00 0.00 0.00 98 1019.0
20260507044140 5 0.0 0.0 0.00 0.00 0.00 97 1018.7
20260507043244 5 0.0 1.6 0.00 0.00 0.00 97 1018.9
20260507042139 5 159 1.6 3.2 0.00 0.00 0.00 97 1018.7
20260507041223 5 0.0 0.0 0.00 0.00 0.00 97 1018.9
20260507040140 5 0.0 0.0 0.00 0.00 0.00 97 1018.8
20260507035224 5 0.0 0.0 0.00 0.00 0.00 97 1018.9
20260507034141 4 0.0 0.0 0.00 0.00 0.00 97 1019.0
20260507033225 4 0.0 0.0 0.00 0.00 0.00 97 1018.8
20260507032141 3 0.0 0.0 0.00 0.00 0.00 97 1018.8
20260507031226 2 0.0 0.0 0.00 0.00 0.00 97 1019.0
20260507030143 2 0.0 0.0 0.00 0.00 0.00 96 1018.7
20260507025307 2 0.0 0.0 0.00 0.00 0.00 96 1018.8